Simultaneous Nadir Overpasses (SNOs) Predictions

Prediction of SNOs between GOES-15 and METOP-C Satellite Orbit:

Table of predicted SNOs for the next 14.0 days since TLE Epoch: 4/16/2023
Index Date Time (GOES-15) GOES-15 Lat,Lon METOP-C Lat,Lon Distance(km) Time Diff (sec)
1 04/17/2023 18:19:22 -0.18,-134.81 -0.68,-132.67 245.19 80
2 04/19/2023 06:41:05 0.19,-135.56 -0.20,-137.29 197.25 80
3 04/20/2023 06:17:47 0.18,-136.05 1.02,-132.33 424.37 80
4 04/21/2023 18:39:22 -0.19,-136.79 -0.16,-136.93 15.44 80
5 04/23/2023 06:58:25 0.20,-137.54 -0.71,-141.56 458.53 80
6 04/24/2023 06:35:07 0.20,-138.01 0.51,-136.59 162.35 80
7 04/25/2023 18:56:43 -0.21,-138.75 0.33,-141.19 278.75 80
8 04/26/2023 18:33:25 -0.21,-139.22 -0.91,-136.23 342.21 80
9 04/28/2023 06:55:07 0.22,-139.96 0.04,-140.86 101.70 80
10 04/30/2023 18:50:43 -0.23,-141.16 -0.35,-140.47 77.10 80
